Hourly Data Report for June 24, 2020

TORONTO CITY
ONTARIO
Current Station Operator: ECCC - MSC

43°40'00.000" N
79°24'00.000" W
112.50 m
6158355
71508
XTO

Download Data

Hourly Data (June 2020)
Hourly Data Report for June 24, 2020
TIME
LST
Temp Definition
°C
Dew Point Definition
°C
Rel Hum Definition
%
Precip. Amount Definition
mm

Wind Dir Definition
10's deg

Wind Spd Definition
km/h
Visibility Definition
km
Stn Press Definition
kPa
Hmdx Definition


Wind Chill Definition


Weather Definition


00:00 19.1 11.6 61 0.0       98.77     LegendNANA
01:00 18.9 10.7 59 0.0       98.83     LegendNANA
02:00 18.3 9.9 58 0.0       98.86     LegendNANA
03:00 17.7 10.2 62 0.0       98.87     LegendNANA
04:00 17.4 10.4 63 0.0       98.91     LegendNANA
05:00 17.3 10.2 63 0.0       98.95     LegendNANA
06:00 17.3 10.3 64 0.0       99.01     LegendNANA
07:00 17.4 10.6 64 0.0       99.07     LegendNANA
08:00 18.0 9.7 58 0.0       99.10     LegendNANA
09:00 18.4 8.6 53 0.0       99.15     LegendNANA
10:00 19.1 9.0 52 0.0       99.21     LegendNANA
11:00 19.3 8.4 49 0.2       99.28     LegendNANA
12:00 19.9 7.1 43 0.0       99.35     LegendNANA
13:00 21.2 7.5 41 0.0       99.36     LegendNANA
14:00 21.2 7.9 42 0.0       99.41     LegendNANA
15:00 21.3 6.8 39 0.0       99.42     LegendNANA
16:00 22.7 6.2 34 0.0       99.37     LegendNANA
17:00 22.1 5.8 35 0.0       99.41     LegendNANA
18:00 21.4 6.2 37 0.2       99.44     LegendNANA
19:00 21.2 6.5 38 0.0       99.51     LegendNANA
20:00 18.3 9.5 56 0.2       99.51     LegendNANA
21:00 18.0 10.4 61 0.0       99.52     LegendNANA
22:00 17.7 10.5 63 0.0       99.52     LegendNANA
23:00 17.5 10.9 66 0.0       99.55     LegendNANA

Notes on Data Quality.

Legend

  • E = Estimated
  • M = Missing
  • NA = Not Available*
  • [empty] = Indicates an unobserved value
Date modified: